| time (UTC) | temp F | wind direction | speed MPH | gust MPH | rain 1hr in | rain 24hr in | rain mn in | humidity % | barometer mb |
| 20260505223450 | 66 | 271 | 3.0 | 4.0 | 0.00 | 0.02 | 0.02 | 47 | 1014.4 |
| 20260505222946 | 67 | 297 | 2.0 | 6.0 | 0.00 | 0.02 | 0.02 | 47 | 1014.5 |
| 20260505222442 | 68 | 275 | 3.0 | 6.0 | 0.00 | 0.02 | 0.02 | 45 | 1014.6 |
| 20260505221938 | 69 | 288 | 4.0 | 6.0 | 0.00 | 0.02 | 0.02 | 44 | 1014.5 |
| 20260505221436 | 69 | 263 | 4.0 | 8.0 | 0.00 | 0.02 | 0.02 | 43 | 1014.7 |
| 20260505220933 | 69 | 288 | 4.0 | 7.0 | 0.00 | 0.02 | 0.02 | 43 | 1014.5 |
| 20260505220430 | 69 | 298 | 2.0 | 8.0 | 0.00 | 0.02 | 0.02 | 46 | 1014.6 |
| 20260505215927 | 69 | 293 | 2.0 | 4.0 | 0.00 | 0.02 | 0.02 | 44 | 1014.5 |
| 20260505215425 | 69 | 270 | 4.0 | 8.0 | 0.00 | 0.02 | 0.02 | 42 | 1014.5 |
| 20260505214923 | 70 | 276 | 3.0 | 6.0 | 0.00 | 0.02 | 0.02 | 43 | 1014.5 |
| 20260505214421 | 70 | 260 | 7.0 | 8.0 | 0.00 | 0.02 | 0.02 | 41 | 1014.5 |
| 20260505213918 | 70 | 256 | 7.0 | 7.0 | 0.00 | 0.02 | 0.02 | 40 | 1014.4 |
| 20260505213415 | 70 | 264 | 5.0 | 7.0 | 0.00 | 0.02 | 0.02 | 41 | 1014.5 |
| 20260505212911 | 70 | 265 | 4.0 | 7.0 | 0.00 | 0.02 | 0.02 | 41 | 1014.4 |
| 20260505212408 | 70 | 272 | 6.0 | 7.0 | 0.00 | 0.02 | 0.02 | 41 | 1014.3 |
| 20260505211904 | 70 | 292 | 4.0 | 9.0 | 0.00 | 0.02 | 0.02 | 40 | 1014.3 |
| 20260505211402 | 70 | 264 | 7.0 | 9.0 | 0.00 | 0.02 | 0.02 | 40 | 1014.3 |
| 20260505210858 | 70 | 302 | 5.0 | 7.0 | 0.00 | 0.02 | 0.02 | 41 | 1014.2 |
| 20260505210356 | 71 | 271 | 7.0 | 9.0 | 0.00 | 0.02 | 0.02 | 39 | 1014.3 |
| 20260505205852 | 71 | 335 | 2.0 | 6.0 | 0.00 | 0.02 | 0.02 | 42 | 1014.4 |
| 20260505205351 | 71 | 268 | 5.0 | 6.0 | 0.00 | 0.02 | 0.02 | 38 | 1014.3 |
| 20260505204847 | 71 | 264 | 6.0 | 9.0 | 0.00 | 0.02 | 0.02 | 38 | 1014.3 |
| 20260505204345 | 71 | 285 | 4.0 | 9.0 | 0.00 | 0.02 | 0.02 | 38 | 1014.4 |
| 20260505203842 | 71 | 293 | 8.0 | 11.0 | 0.00 | 0.02 | 0.02 | 36 | 1014.2 |
| 20260505203338 | 71 | 252 | 7.0 | 9.0 | 0.00 | 0.02 | 0.02 | 37 | 1014.4 |
| 20260505202835 | 72 | 260 | 7.0 | 9.0 | 0.00 | 0.02 | 0.02 | 35 | 1014.3 |
| 20260505202331 | 72 | 244 | 5.0 | 6.0 | 0.00 | 0.02 | 0.02 | 35 | 1014.1 |
| 20260505201828 | 71 | 271 | 4.0 | 8.0 | 0.00 | 0.02 | 0.02 | 35 | 1014.0 |
| 20260505201325 | 72 | 242 | 9.0 | 15.0 | 0.00 | 0.02 | 0.02 | 32 | 1014.2 |
| 20260505200823 | 72 | 245 | 4.0 | 8.0 | 0.00 | 0.02 | 0.02 | 33 | 1014.3 |
| 20260505200320 | 72 | 273 | 8.0 | 13.0 | 0.00 | 0.02 | 0.02 | 32 | 1014.4 |
| 20260505195815 | 71 | 259 | 5.0 | 9.0 | 0.00 | 0.02 | 0.02 | 32 | 1014.4 |
| 20260505195313 | 72 | 246 | 9.0 | 16.0 | 0.00 | 0.02 | 0.02 | 30 | 1014.4 |
| 20260505194810 | 72 | 267 | 6.0 | 11.0 | 0.00 | 0.02 | 0.02 | 32 | 1014.4 |
| 20260505194307 | 72 | 307 | 6.0 | 11.0 | 0.00 | 0.02 | 0.02 | 34 | 1014.3 |
| 20260505193802 | 72 | 254 | 6.0 | 8.0 | 0.00 | 0.02 | 0.02 | 37 | 1014.5 |
| 20260505193300 | 73 | 225 | 6.0 | 8.0 | 0.00 | 0.02 | 0.02 | 36 | 1014.4 |
| 20260505192758 | 72 | 240 | 5.0 | 9.0 | 0.00 | 0.02 | 0.02 | 35 | 1014.3 |
| 20260505192256 | 73 | 247 | 8.0 | 13.0 | 0.00 | 0.02 | 0.02 | 35 | 1014.4 |
| 20260505191754 | 73 | 255 | 6.0 | 11.0 | 0.00 | 0.02 | 0.02 | 35 | 1014.6 |
| 20260505191252 | 73 | 278 | 9.0 | 13.0 | 0.00 | 0.02 | 0.02 | 35 | 1014.5 |
| 20260505190748 | 74 | 256 | 10.0 | 13.0 | 0.00 | 0.02 | 0.02 | 33 | 1014.6 |
| 20260505190243 | 74 | 281 | 11.0 | 14.0 | 0.00 | 0.02 | 0.02 | 33 | 1014.5 |
| 20260505185739 | 74 | 284 | 6.0 | 10.0 | 0.00 | 0.02 | 0.02 | 34 | 1014.4 |
| 20260505185236 | 74 | 253 | 6.0 | 15.0 | 0.00 | 0.02 | 0.02 | 34 | 1014.7 |
| 20260505184732 | 74 | 314 | 8.0 | 10.0 | 0.00 | 0.02 | 0.02 | 34 | 1014.6 |
| 20260505184230 | 75 | 281 | 6.0 | 9.0 | 0.00 | 0.02 | 0.02 | 32 | 1014.7 |
| 20260505183726 | 75 | 257 | 6.0 | 10.0 | 0.00 | 0.02 | 0.02 | 32 | 1014.7 |
| 20260505183224 | 73 | 237 | 5.0 | 7.0 | 0.00 | 0.02 | 0.02 | 35 | 1015.1 |
| 20260505182720 | 74 | 254 | 9.0 | 13.0 | 0.00 | 0.02 | 0.02 | 32 | 1015.2 |
| 20260505182217 | 74 | 261 | 6.0 | 9.0 | 0.00 | 0.02 | 0.02 | 35 | 1015.2 |
| 20260505181713 | 74 | 255 | 9.0 | 13.0 | 0.00 | 0.02 | 0.02 | 35 | 1015.1 |
| 20260505181211 | 74 | 273 | 11.0 | 18.0 | 0.00 | 0.02 | 0.02 | 35 | 1015.1 |
| 20260505180707 | 73 | 275 | 10.0 | 16.0 | 0.00 | 0.02 | 0.02 | 34 | 1014.9 |
| 20260505180204 | 73 | 246 | 10.0 | 14.0 | 0.00 | 0.02 | 0.02 | 35 | 1015.1 |
| 20260505175700 | 73 | 252 | 7.0 | 10.0 | 0.00 | 0.02 | 0.02 | 36 | 1015.2 |
| 20260505175157 | 73 | 266 | 9.0 | 11.0 | 0.00 | 0.02 | 0.02 | 37 | 1015.2 |
| 20260505174653 | 73 | 258 | 8.0 | 10.0 | 0.00 | 0.02 | 0.02 | 38 | 1015.4 |
| 20260505174149 | 73 | 269 | 9.0 | 11.0 | 0.00 | 0.02 | 0.02 | 38 | 1015.2 |
| 20260505173646 | 72 | 271 | 13.0 | 16.0 | 0.00 | 0.02 | 0.02 | 36 | 1015.2 |
| 20260505173143 | 72 | 267 | 9.0 | 13.0 | 0.00 | 0.02 | 0.02 | 36 | 1015.3 |
| 20260505172641 | 71 | 244 | 7.0 | 9.0 | 0.00 | 0.02 | 0.02 | 38 | 1015.3 |
| 20260505172138 | 72 | 223 | 4.0 | 9.0 | 0.00 | 0.02 | 0.02 | 39 | 1015.3 |
| 20260505171637 | 72 | 250 | 10.0 | 17.0 | 0.00 | 0.02 | 0.02 | 38 | 1015.5 |
| 20260505171135 | 71 | 223 | 6.0 | 11.0 | 0.00 | 0.02 | 0.02 | 38 | 1015.6 |
| 20260505170632 | 72 | 241 | 6.0 | 11.0 | 0.00 | 0.02 | 0.02 | 39 | 1015.6 |
| 20260505170128 | 70 | 284 | 7.0 | 10.0 | 0.00 | 0.02 | 0.02 | 42 | 1015.7 |
| 20260505165623 | 72 | 250 | 7.0 | 13.0 | 0.00 | 0.02 | 0.02 | 44 | 1015.6 |
| 20260505165120 | 70 | 250 | 7.0 | 9.0 | 0.00 | 0.02 | 0.02 | 44 | 1015.7 |
| 20260505164615 | 67 | 256 | 8.0 | 9.0 | 0.00 | 0.02 | 0.02 | 46 | 1015.9 |
| 20260505164113 | 68 | 263 | 5.0 | 13.0 | 0.00 | 0.02 | 0.02 | 45 | 1015.8 |
| 20260505163611 | 69 | 281 | 11.0 | 14.0 | 0.00 | 0.02 | 0.02 | 45 | 1016.1 |
| 20260505163108 | 68 | 272 | 9.0 | 11.0 | 0.00 | 0.02 | 0.02 | 45 | 1016.0 |
| 20260505162606 | 68 | 251 | 9.0 | 11.0 | 0.00 | 0.02 | 0.02 | 45 | 1016.0 |
| 20260505162103 | 68 | 276 | 8.0 | 10.0 | 0.00 | 0.02 | 0.02 | 47 | 1016.1 |
| 20260505161600 | 69 | 253 | 7.0 | 10.0 | 0.00 | 0.02 | 0.02 | 47 | 1016.1 |
| 20260505161057 | 69 | 254 | 7.0 | 10.0 | 0.00 | 0.02 | 0.02 | 45 | 1016.0 |
| 20260505160555 | 67 | 255 | 6.0 | 8.0 | 0.00 | 0.02 | 0.02 | 49 | 1016.1 |
| 20260505153032 | 65 | 261 | 8.0 | 10.0 | 0.00 | 0.02 | 0.02 | 49 | 1016.5 |
| 20260505152528 | 65 | 269 | 11.0 | 17.0 | 0.00 | 0.02 | 0.02 | 49 | 1016.2 |
| 20260505152024 | 64 | 289 | 9.0 | 14.0 | 0.00 | 0.02 | 0.02 | 50 | 1016.1 |
| 20260505151519 | 64 | 307 | 8.0 | 13.0 | 0.00 | 0.02 | 0.02 | 51 | 1016.0 |
| 20260505151017 | 65 | 269 | 10.0 | 16.0 | 0.00 | 0.02 | 0.02 | 50 | 1016.0 |
| 20260505150513 | 66 | 269 | 20.0 | 23.0 | 0.00 | 0.02 | 0.02 | 48 | 1015.9 |
| 20260505140438 | 66 | 262 | 12.0 | 15.0 | 0.00 | 0.02 | 0.02 | 51 | 1015.6 |
| 20260505124852 | 63 | 295 | 10.0 | 16.0 | 0.00 | 0.02 | 0.02 | 56 | 1015.6 |
| 20260505124349 | 63 | 253 | 11.0 | 14.0 | 0.00 | 0.02 | 0.02 | 56 | 1015.5 |
| 20260505123845 | 62 | 248 | 6.0 | 21.0 | 0.00 | 0.02 | 0.02 | 59 | 1015.5 |
| 20260505123342 | 62 | 244 | 7.0 | 11.0 | 0.00 | 0.02 | 0.02 | 57 | 1015.5 |
| 20260505122837 | 62 | 250 | 7.0 | 9.0 | 0.00 | 0.02 | 0.02 | 58 | 1015.5 |
| 20260505122335 | 62 | 267 | 13.0 | 22.0 | 0.00 | 0.02 | 0.02 | 57 | 1015.4 |
| 20260505121832 | 62 | 279 | 11.0 | 14.0 | 0.00 | 0.02 | 0.02 | 58 | 1015.4 |
| 20260505121329 | 62 | 259 | 11.0 | 15.0 | 0.00 | 0.02 | 0.02 | 58 | 1015.3 |
| 20260505120825 | 62 | 273 | 11.0 | 17.0 | 0.00 | 0.02 | 0.02 | 58 | 1015.6 |
| 20260505120321 | 61 | 261 | 8.0 | 11.0 | 0.00 | 0.02 | 0.02 | 59 | 1015.3 |
| 20260505115819 | 61 | 254 | 9.0 | 14.0 | 0.00 | 0.02 | 0.02 | 59 | 1015.4 |
| 20260505115317 | 60 | 286 | 3.0 | 11.0 | 0.00 | 0.02 | 0.02 | 60 | 1015.7 |
| 20260505114815 | 60 | 281 | 8.0 | 13.0 | 0.00 | 0.02 | 0.02 | 61 | 1015.6 |
| 20260505114311 | 60 | 276 | 7.0 | 11.0 | 0.00 | 0.02 | 0.02 | 62 | 1015.5 |
| 20260505113808 | 59 | 255 | 6.0 | 11.0 | 0.00 | 0.02 | 0.02 | 62 | 1015.5 |
| 20260505113304 | 59 | 266 | 7.0 | 13.0 | 0.00 | 0.02 | 0.02 | 62 | 1015.7 |
| 20260505112800 | 59 | 273 | 10.0 | 16.0 | 0.00 | 0.02 | 0.02 | 62 | 1015.5 |
| 20260505112258 | 58 | 244 | 5.0 | 8.0 | 0.00 | 0.02 | 0.02 | 64 | 1015.7 |
| 20260505111758 | 58 | 289 | 6.0 | 8.0 | 0.00 | 0.02 | 0.02 | 65 | 1015.7 |
| 20260505111254 | 58 | 241 | 8.0 | 11.0 | 0.00 | 0.02 | 0.02 | 63 | 1015.7 |
| 20260505110750 | 58 | 275 | 6.0 | 9.0 | 0.00 | 0.02 | 0.02 | 65 | 1015.6 |
| 20260505110248 | 58 | 292 | 8.0 | 11.0 | 0.00 | 0.02 | 0.02 | 65 | 1015.6 |
| 20260505101722 | 58 | 258 | 8.0 | 14.0 | 0.00 | 0.02 | 0.02 | 63 | 1015.1 |
| 20260505101217 | 58 | 272 | 9.0 | 11.0 | 0.00 | 0.02 | 0.02 | 64 | 1015.2 |
| 20260505100714 | 58 | 258 | 9.0 | 13.0 | 0.00 | 0.02 | 0.02 | 63 | 1014.9 |
| 20260505100211 | 58 | 259 | 8.0 | 13.0 | 0.00 | 0.02 | 0.02 | 64 | 1014.6 |
| 20260505095706 | 57 | 258 | 9.0 | 13.0 | 0.00 | 0.02 | 0.02 | 65 | 1014.7 |
| 20260505095205 | 58 | 268 | 8.0 | 10.0 | 0.00 | 0.02 | 0.02 | 65 | 1014.9 |
| 20260505094700 | 58 | 274 | 11.0 | 13.0 | 0.00 | 0.02 | 0.02 | 64 | 1014.6 |
| 20260505094157 | 58 | 255 | 6.0 | 9.0 | 0.00 | 0.02 | 0.02 | 64 | 1014.9 |
| 20260505093653 | 58 | 218 | 8.0 | 11.0 | 0.00 | 0.02 | 0.02 | 63 | 1014.9 |
| 20260505093151 | 58 | 258 | 11.0 | 13.0 | 0.00 | 0.02 | 0.02 | 64 | 1014.9 |
| 20260505092647 | 57 | 266 | 7.0 | 9.0 | 0.00 | 0.02 | 0.02 | 65 | 1014.8 |
| 20260505092146 | 58 | 258 | 8.0 | 9.0 | 0.00 | 0.02 | 0.02 | 63 | 1014.7 |
| 20260505091643 | 57 | 270 | 8.0 | 9.0 | 0.00 | 0.02 | 0.02 | 64 | 1014.7 |
| 20260505091141 | 57 | 238 | 4.0 | 7.0 | 0.00 | 0.02 | 0.02 | 66 | 1014.9 |
| 20260505090638 | 57 | 242 | 5.0 | 9.0 | 0.00 | 0.02 | 0.02 | 64 | 1014.9 |
| 20260505090136 | 57 | 242 | 5.0 | 6.0 | 0.00 | 0.02 | 0.02 | 65 | 1014.9 |
| 20260505085633 | 56 | 272 | 8.0 | 11.0 | 0.00 | 0.02 | 0.02 | 63 | 1014.9 |
| 20260505085131 | 56 | 265 | 5.0 | 7.0 | 0.00 | 0.02 | 0.02 | 67 | 1015.2 |
| 20260505084629 | 56 | 239 | 4.0 | 6.0 | 0.00 | 0.02 | 0.02 | 67 | 1014.7 |
| 20260505084127 | 55 | 241 | 3.0 | 6.0 | 0.00 | 0.02 | 0.02 | 69 | 1015.1 |
| 20260505083624 | 55 | 232 | 4.0 | 6.0 | 0.00 | 0.02 | 0.02 | 70 | 1015.1 |
| 20260505083121 | 54 | 243 | 4.0 | 4.0 | 0.00 | 0.02 | 0.02 | 70 | 1015.1 |
| 20260505082616 | 54 | 244 | 4.0 | 4.0 | 0.00 | 0.02 | 0.02 | 71 | 1014.7 |
| 20260505082114 | 54 | 237 | 4.0 | 4.0 | 0.00 | 0.02 | 0.02 | 73 | 1014.9 |
| 20260505081610 | 53 | 241 | 4.0 | 4.0 | 0.00 | 0.02 | 0.02 | 73 | 1014.7 |
| 20260505081107 | 53 | 243 | 3.0 | 4.0 | 0.00 | 0.02 | 0.02 | 73 | 1014.9 |
| 20260505080603 | 54 | 248 | 3.0 | 4.0 | 0.00 | 0.02 | 0.02 | 73 | 1014.8 |
| 20260505080100 | 53 | 250 | 3.0 | 3.0 | 0.00 | 0.02 | 0.02 | 75 | 1014.6 |
| 20260505075556 | 53 | 244 | 4.0 | 4.0 | 0.00 | 0.02 | 0.02 | 76 | 1014.8 |
| 20260505075053 | 53 | 249 | 4.0 | 4.0 | 0.00 | 0.02 | 0.02 | 77 | 1014.6 |
| 20260505074550 | 52 | 249 | 3.0 | 3.0 | 0.00 | 0.02 | 0.02 | 81 | 1014.9 |
| 20260505074047 | 52 | 248 | 3.0 | 3.0 | 0.00 | 0.02 | 0.02 | 85 | 1014.5 |
| 20260505073544 | 53 | 252 | 2.0 | 2.0 | 0.00 | 0.02 | 0.02 | 81 | 1014.6 |
| 20260505073043 | 53 | 253 | 2.0 | 2.0 | 0.00 | 0.02 | 0.02 | 82 | 1014.6 |
| 20260505072538 | 53 | 251 | 2.0 | 2.0 | 0.00 | 0.02 | 0.02 | 82 | 1014.5 |
| 20260505072035 | 53 | 239 | 3.0 | 3.0 | 0.00 | 0.02 | 0.02 | 81 | 1014.6 |
| 20260505071530 | 53 | 235 | 2.0 | 3.0 | 0.00 | 0.02 | 0.02 | 81 | 1014.9 |
| 20260505071029 | 54 | 266 | 4.0 | 11.0 | 0.12 | 0.02 | 0.02 | 79 | 1014.9 |
| 20260505070526 | 55 | 278 | 10.0 | 14.0 | 0.05 | 0.01 | 0.01 | 76 | 1015.1 |
| 20260505070022 | 58 | 250 | 6.0 | 9.0 | 0.00 | 0.00 | 0.00 | 60 | 1014.8 |
| 20260505065518 | 57 | 271 | 7.0 | 9.0 | 0.00 | 0.00 | 0.00 | 61 | 1014.7 |
| 20260505065014 | 56 | 256 | 5.0 | 7.0 | 0.00 | 0.00 | 0.00 | 63 | 1014.6 |
| 20260505064511 | 55 | 242 | 4.0 | 4.0 | 0.00 | 0.00 | 0.00 | 64 | 1014.5 |
| 20260505064010 | 55 | 259 | 2.0 | 3.0 | 0.00 | 0.00 | 0.00 | 66 | 1014.6 |
| 20260505063507 | 53 | 248 | 2.0 | 3.0 | 0.00 | 0.00 | 0.00 | 67 | 1014.5 |
| 20260505063008 | 54 | 245 | 2.0 | 3.0 | 0.00 | 0.00 | 0.00 | 68 | 1014.4 |
| 20260505062505 | 53 | 244 | 2.0 | 3.0 | 0.00 | 0.00 | 0.00 | 68 | 1014.7 |
| 20260505062002 | 54 | 242 | 2.0 | 3.0 | 0.00 | 0.00 | 0.00 | 67 | 1014.5 |
| 20260505061459 | 53 | 249 | 2.0 | 3.0 | 0.00 | 0.00 | 0.00 | 69 | 1014.5 |
| 20260505060957 | 52 | 245 | 3.0 | 3.0 | 0.00 | 0.00 | 0.00 | 70 | 1014.5 |
| 20260505060454 | 52 | 246 | 2.0 | 3.0 | 0.00 | 0.00 | 0.00 | 70 | 1014.6 |
| 20260505055950 | 52 | 244 | 2.0 | 3.0 | 0.00 | 0.00 | 0.00 | 70 | 1014.6 |
| 20260505055446 | 52 | 243 | 2.0 | 3.0 | 0.00 | 0.00 | 0.00 | 69 | 1014.7 |
| 20260505054943 | 52 | 256 | 2.0 | 3.0 | 0.00 | 0.00 | 0.00 | 71 | 1014.6 |
| 20260505054441 | 52 | 260 | 2.0 | 3.0 | 0.00 | 0.00 | 0.00 | 70 | 1014.7 |
| 20260505053938 | 53 | 261 | 2.0 | 2.0 | 0.00 | 0.00 | 0.00 | 70 | 1014.7 |
| 20260505053435 | 53 | 261 | 2.0 | 2.0 | 0.00 | 0.00 | 0.00 | 70 | 1014.7 |
| 20260505052932 | 53 | 261 | 1.0 | 3.0 | 0.00 | 0.00 | 0.00 | 69 | 1014.7 |
| 20260505052429 | 53 | 248 | 2.0 | 2.0 | 0.00 | 0.00 | 0.00 | 69 | 1014.8 |
| 20260505051926 | 54 | 245 | 2.0 | 2.0 | 0.00 | 0.00 | 0.00 | 68 | 1014.8 |
| 20260505051423 | 55 | 242 | 2.0 | 3.0 | 0.00 | 0.00 | 0.00 | 67 | 1014.8 |
| 20260505050921 | 55 | 244 | 3.0 | 3.0 | 0.00 | 0.00 | 0.00 | 66 | 1015.1 |
| 20260505050419 | 55 | 250 | 2.0 | 3.0 | 0.00 | 0.00 | 0.00 | 65 | 1014.9 |
| 20260505041347 | 55 | 244 | 2.0 | 3.0 | 0.00 | 0.00 | 0.00 | 66 | 1014.9 |
| 20260505040844 | 56 | 242 | 3.0 | 4.0 | 0.00 | 0.00 | 0.00 | 64 | 1015.1 |
| 20260505040341 | 55 | 244 | 4.0 | 4.0 | 0.00 | 0.00 | 0.00 | 64 | 1014.8 |
| 20260505035838 | 56 | 240 | 2.0 | 3.0 | 0.00 | 0.00 | 0.00 | 65 | 1014.8 |
| 20260505035334 | 55 | 264 | 4.0 | 4.0 | 0.00 | 0.00 | 0.00 | 65 | 1014.8 |
| 20260505034831 | 54 | 233 | 2.0 | 3.0 | 0.00 | 0.00 | 0.00 | 68 | 1014.9 |
| 20260505034328 | 54 | 239 | 3.0 | 3.0 | 0.00 | 0.00 | 0.00 | 69 | 1014.8 |
| 20260505033825 | 54 | 240 | 2.0 | 3.0 | 0.00 | 0.00 | 0.00 | 69 | 1014.7 |
| 20260505033322 | 53 | 241 | 2.0 | 2.0 | 0.00 | 0.00 | 0.00 | 70 | 1014.9 |
| 20260505032820 | 53 | 241 | 2.0 | 2.0 | 0.00 | 0.00 | 0.00 | 70 | 1015.1 |
| 20260505032316 | 54 | 241 | 1.0 | 2.0 | 0.00 | 0.00 | 0.00 | 69 | 1014.9 |
| 20260505031813 | 54 | 241 | 2.0 | 2.0 | 0.00 | 0.00 | 0.00 | 69 | 1015.1 |
| 20260505031309 | 54 | 241 | 2.0 | 2.0 | 0.00 | 0.00 | 0.00 | 69 | 1014.9 |
| 20260505030807 | 54 | 242 | 2.0 | 3.0 | 0.00 | 0.00 | 0.00 | 68 | 1014.8 |
| 20260505030303 | 53 | 240 | 2.0 | 2.0 | 0.00 | 0.00 | 0.00 | 70 | 1015.1 |
| 20260505025758 | 52 | 246 | 1.0 | 3.0 | 0.00 | 0.00 | 0.00 | 73 | 1015.2 |
| 20260505025256 | 52 | 240 | 2.0 | 2.0 | 0.00 | 0.00 | 0.00 | 74 | 1015.2 |
| 20260505024754 | 52 | 240 | 2.0 | 2.0 | 0.00 | 0.00 | 0.00 | 72 | 1015.5 |
| 20260505024251 | 53 | 240 | 2.0 | 3.0 | 0.00 | 0.00 | 0.00 | 71 | 1015.2 |
| 20260505023749 | 53 | 240 | 2.0 | 2.0 | 0.00 | 0.00 | 0.00 | 71 | 1015.3 |
| 20260505023246 | 53 | 240 | 1.0 | 2.0 | 0.00 | 0.00 | 0.00 | 71 | 1015.4 |
| 20260505022743 | 53 | 240 | 2.0 | 2.0 | 0.00 | 0.00 | 0.00 | 71 | 1015.2 |
| 20260505022240 | 53 | 240 | 1.0 | 2.0 | 0.00 | 0.00 | 0.00 | 70 | 1015.3 |
| 20260505021736 | 54 | 240 | 2.0 | 2.0 | 0.00 | 0.00 | 0.00 | 68 | 1015.3 |
| 20260505021234 | 54 | 240 | 2.0 | 2.0 | 0.00 | 0.00 | 0.00 | 68 | 1015.3 |
| 20260505020729 | 54 | 240 | 1.0 | 2.0 | 0.00 | 0.00 | 0.00 | 68 | 1015.4 |
| 20260505020225 | 55 | 240 | 1.0 | 3.0 | 0.00 | 0.00 | 0.00 | 66 | 1015.5 |
| 20260505015723 | 55 | 240 | 2.0 | 3.0 | 0.00 | 0.00 | 0.00 | 66 | 1015.6 |
| 20260505015219 | 55 | 241 | 2.0 | 3.0 | 0.00 | 0.00 | 0.00 | 66 | 1015.3 |
| 20260505014716 | 55 | 244 | 2.0 | 3.0 | 0.00 | 0.00 | 0.00 | 66 | 1015.2 |
| 20260505014214 | 56 | 244 | 2.0 | 3.0 | 0.00 | 0.00 | 0.00 | 66 | 1015.1 |
| 20260505013710 | 57 | 244 | 2.0 | 4.0 | 0.00 | 0.00 | 0.00 | 63 | 1015.1 |
| 20260505013207 | 57 | 238 | 3.0 | 3.0 | 0.00 | 0.00 | 0.00 | 62 | 1015.3 |
| 20260505012706 | 57 | 238 | 2.0 | 3.0 | 0.00 | 0.00 | 0.00 | 62 | 1014.9 |
| 20260505012203 | 57 | 238 | 2.0 | 3.0 | 0.00 | 0.00 | 0.00 | 62 | 1014.9 |
| 20260505011658 | 58 | 237 | 2.0 | 3.0 | 0.00 | 0.00 | 0.00 | 61 | 1014.7 |
| 20260505011155 | 58 | 238 | 3.0 | 3.0 | 0.00 | 0.00 | 0.00 | 61 | 1014.8 |
| 20260505010650 | 59 | 255 | 2.0 | 3.0 | 0.00 | 0.00 | 0.00 | 60 | 1014.8 |
| 20260505010148 | 59 | 248 | 2.0 | 3.0 | 0.00 | 0.00 | 0.00 | 60 | 1014.6 |
| 20260505005644 | 59 | 249 | 2.0 | 4.0 | 0.00 | 0.00 | 0.00 | 60 | 1014.6 |
| 20260505005141 | 59 | 250 | 2.0 | 3.0 | 0.00 | 0.00 | 0.00 | 60 | 1014.6 |
| 20260505004638 | 60 | 265 | 4.0 | 4.0 | 0.00 | 0.00 | 0.00 | 59 | 1014.6 |
| 20260505004134 | 60 | 252 | 4.0 | 6.0 | 0.00 | 0.00 | 0.00 | 57 | 1014.6 |
| 20260505003632 | 60 | 290 | 5.0 | 6.0 | 0.00 | 0.00 | 0.00 | 58 | 1014.6 |
| 20260505003129 | 60 | 249 | 3.0 | 4.0 | 0.00 | 0.00 | 0.00 | 56 | 1014.2 |
| 20260505002625 | 60 | 304 | 5.0 | 9.0 | 0.00 | 0.00 | 0.00 | 56 | 1014.5 |
| 20260505002124 | 60 | 256 | 4.0 | 6.0 | 0.00 | 0.00 | 0.00 | 57 | 1014.5 |
| 20260505001620 | 60 | 259 | 3.0 | 6.0 | 0.00 | 0.00 | 0.00 | 58 | 1014.7 |
| 20260505001118 | 60 | 252 | 4.0 | 4.0 | 0.00 | 0.00 | 0.00 | 57 | 1014.6 |
| 20260505000615 | 61 | 255 | 2.0 | 4.0 | 0.00 | 0.00 | 0.00 | 57 | 1014.4 |
| 20260505000113 | 61 | 264 | 3.0 | 4.0 | 0.00 | 0.00 | 0.00 | 56 | 1014.3 |
| 20260504235609 | 61 | 249 | 3.0 | 4.0 | 0.00 | 0.00 | 0.00 | 56 | 1014.3 |
| 20260504235105 | 62 | 271 | 4.0 | 4.0 | 0.00 | 0.00 | 0.00 | 55 | 1014.2 |
| 20260504234602 | 62 | 268 | 3.0 | 6.0 | 0.00 | 0.00 | 0.00 | 54 | 1014.4 |
| 20260504234101 | 62 | 268 | 6.0 | 8.0 | 0.00 | 0.00 | 0.00 | 53 | 1014.1 |
| 20260504233601 | 62 | 264 | 3.0 | 4.0 | 0.00 | 0.00 | 0.00 | 54 | 1014.1 |
| 20260504233058 | 62 | 255 | 5.0 | 7.0 | 0.00 | 0.00 | 0.00 | 54 | 1014.3 |
| 20260504232555 | 62 | 280 | 7.0 | 10.0 | 0.00 | 0.00 | 0.00 | 53 | 1014.2 |
| 20260504232052 | 62 | 275 | 6.0 | 9.0 | 0.00 | 0.00 | 0.00 | 53 | 1014.2 |
| 20260504231549 | 62 | 266 | 6.0 | 8.0 | 0.00 | 0.00 | 0.00 | 53 | 1014.3 |
| 20260504231045 | 63 | 280 | 7.0 | 10.0 | 0.00 | 0.00 | 0.00 | 53 | 1014.4 |
| 20260504230541 | 64 | 276 | 5.0 | 14.0 | 0.00 | 0.00 | 0.00 | 52 | 1014.4 |
| 20260504230040 | 64 | 289 | 8.0 | 13.0 | 0.00 | 0.00 | 0.00 | 51 | 1014.5 |
| 20260504225537 | 63 | 287 | 11.0 | 13.0 | 0.00 | 0.00 | 0.00 | 52 | 1014.3 |
| 20260504225034 | 63 | 248 | 4.0 | 9.0 | 0.00 | 0.00 | 0.00 | 53 | 1014.4 |
| 20260504224530 | 64 | 272 | 8.0 | 10.0 | 0.00 | 0.00 | 0.00 | 52 | 1014.3 |
| 20260504224028 | 64 | 241 | 5.0 | 7.0 | 0.00 | 0.00 | 0.00 | 52 | 1014.4 |